TimeCDT,TemperatureF,Dew PointF,Humidity,Sea Level PressureIn,VisibilityMPH,Wind Direction,Wind SpeedMPH,Gust SpeedMPH,PrecipitationIn,Events,Conditions,WindDirDegrees,DateUTC
12:56 AM,30.9,25.0,79,30.08,10.0,SSW,3.5,-,N/A,,Clear,200,2013-10-27 05:56:00
1:56 AM,34.0,26.1,73,30.05,10.0,SSW,8.1,-,N/A,,Clear,200,2013-10-27 06:56:00
2:56 AM,33.1,27.0,78,30.03,10.0,SSW,8.1,-,N/A,,Clear,210,2013-10-27 07:56:00
3:56 AM,34.0,26.1,73,29.99,10.0,SSW,6.9,-,N/A,,Clear,200,2013-10-27 08:56:00
4:56 AM,33.1,26.1,75,29.96,10.0,SSW,9.2,-,N/A,,Clear,200,2013-10-27 09:56:00
5:56 AM,34.0,26.1,73,29.94,10.0,SSW,9.2,-,N/A,,Clear,210,2013-10-27 10:56:00
6:56 AM,34.0,26.1,73,29.92,10.0,SSW,6.9,-,N/A,,Partly Cloudy,200,2013-10-27 11:56:00
7:56 AM,33.1,26.1,75,29.91,10.0,South,5.8,-,N/A,,Partly Cloudy,170,2013-10-27 12:56:00
8:56 AM,36.0,27.0,70,29.89,10.0,South,5.8,-,N/A,,Partly Cloudy,180,2013-10-27 13:56:00
9:56 AM,42.1,28.9,60,29.88,10.0,SSW,8.1,-,N/A,,Partly Cloudy,200,2013-10-27 14:56:00
10:56 AM,46.9,30.9,54,29.88,10.0,SSW,5.8,-,N/A,,Partly Cloudy,210,2013-10-27 15:56:00
11:56 AM,51.1,33.1,50,29.86,10.0,SW,3.5,-,N/A,,Clear,230,2013-10-27 16:56:00
12:56 PM,55.0,33.1,43,29.86,10.0,Calm,Calm,-,N/A,,Clear,0,2013-10-27 17:56:00
1:56 PM,59.0,34.0,39,29.83,10.0,West,4.6,-,N/A,,Clear,270,2013-10-27 18:56:00
2:56 PM,62.1,36.0,38,29.83,10.0,NW,4.6,-,N/A,,Clear,320,2013-10-27 19:56:00
3:56 PM,63.0,35.1,35,29.83,10.0,North,10.4,-,N/A,,Clear,350,2013-10-27 20:56:00
4:56 PM,60.1,34.0,38,29.87,10.0,NNE,12.7,-,N/A,,Clear,20,2013-10-27 21:56:00
5:56 PM,55.9,34.0,44,29.91,10.0,NNE,13.8,-,N/A,,Clear,30,2013-10-27 22:56:00
6:56 PM,48.9,34.0,56,29.96,10.0,NNE,15.0,-,N/A,,Clear,30,2013-10-27 23:56:00
7:56 PM,46.0,33.1,61,30.01,10.0,NNE,15.0,21.9,N/A,,Clear,30,2013-10-28 00:56:00
8:56 PM,43.0,32.0,65,30.04,10.0,NNE,13.8,20.7,N/A,,Clear,20,2013-10-28 01:56:00
9:56 PM,41.0,30.0,65,30.06,10.0,NNE,13.8,-,N/A,,Clear,30,2013-10-28 02:56:00
10:56 PM,39.0,28.9,67,30.10,10.0,NNE,10.4,-,N/A,,Clear,30,2013-10-28 03:56:00
11:56 PM,37.9,28.9,70,30.12,10.0,NNE,12.7,-,N/A,,Clear,30,2013-10-28 04:56:00